Weather Roundup
Issued by NWS

Home | Current Version | Previous Version | Graphics & Text | Print | Product List | Glossary Off
Versions: 1 2 3 4 5 6 7 8 9 10 11 12 13 14 15 16 17 18 19 20 21 22 23 24 25 26 27 28 29 30 31 32 33 34 35 36 37 38 39 40 41 42 43 44 45 46 47 48 49 50

000
NZUS93 KARX 171310
HRRWXR

CURRENT HOURLY OBSERVATIONS ACROSS
MUCH OF THE UPPER MISSISSIPPI VALLEY
NATIONAL WEATHER SERVICE LA CROSSE WI
700 AM CST FRI NOV 17 2017


...SOUTHEAST MINNESOTA...


CITY           SKY/WX    TMP DP  RH WIND       PRES   REMARKS
ROCHESTER      CLOUDY    34  30  85 S18G32    29.76F WCI  23
ROCHESTER/MAYO CLOUDY    35  30  83 SE14G26   29.78R WCI  25
WINONA         CLOUDY    36  30  80 SE12      29.83S WCI  27
AUSTIN         CLOUDY    34  28  80 S13G21    29.76F WCI  25
ALBERT LEA     CLOUDY    34  28  80 S20G26    29.73S WCI  22
DODGE CENTER   CLOUDY    34  30  86 S20G31    29.74F WCI  22
PRESTON        CLOUDY    33  29  86 S16G25    29.81R WCI  22
OWATONNA       CLOUDY    36  30  80 SE20G28   29.72F WCI  25
FARIBAULT      CLOUDY    36  30  80 SE17G23   29.73S WCI  25
$$

...ELSEWHERE IN MINNESOTA...


CITY           SKY/WX    TMP DP  RH WIND       PRES   REMARKS
MINNEAPOLIS    CLOUDY    37  31  78 S14G23    29.74S WCI  28
INTNL FALLS    CLOUDY    32  25  75 S9G23     29.60F WCI  24
DULUTH         CLOUDY    31  28  89 S13       29.71F WCI  21
RED WING       CLOUDY    37  27  65 SE14      29.77F WCI  29
REDWOOD FALLS  CLOUDY    37  29  72 S13       29.64F WCI  29
MANKATO        CLOUDY    37  31  78 S14G23    29.70S WCI  28
WORTHINGTON    CLOUDY    40  33  76 S18       29.60F WCI  31
FAIRMONT       CLOUDY    38  32  79 S20G25    29.67R WCI  28
$$

...SOUTHWEST WISCONSIN...


CITY           SKY/WX    TMP DP  RH WIND       PRES   REMARKS
LA CROSSE      CLOUDY    37  29  72 SE18      29.85F WCI  27
PRAIRIE DU CHI CLOUDY    35  29  79 SE13      29.89F WCI  26
BOSCOBEL       CLOUDY    36  29  75 SE6       29.94F WCI  31
LONE ROCK      CLOUDY    35  30  82 SE8       29.99S WCI  29
PLATTEVILLE    CLOUDY    33  32  94 SE15      29.95F WCI  23
FORT MC COY    CLOUDY    35  29  81 SE14G20   29.89F WCI  25
CAMP DOUGLAS   CLOUDY    34  28  80 SE17G24   29.91F WCI  23
MAUSTON-NEW LI CLOUDY    34  29  82 SE18G26   29.91F WCI  23
VIROQUA        CLOUDY    32  31  97 SE16G23   29.87F WCI  21
WIS DELLS      CLOUDY    33  28  83 S16       29.96F WCI  23
$$

...ELSEWHERE IN WISCONSIN...


CITY           SKY/WX    TMP DP  RH WIND       PRES   REMARKS
MILWAUKEE      CLOUDY    36  31  82 S10       30.08F WCI  28
MADISON        CLOUDY    34  28  79 S18G26    30.00F WCI  23
GREEN BAY      CLOUDY    34  34 100 SE6       30.04F WCI  29
EAU CLAIRE     CLOUDY    34  27  75 SE15G22   29.81F WCI  24
BLACK RVR FLS  CLOUDY    35  27  71 SE8G17    29.86F WCI  29
MEDFORD        CLOUDY    31  27  87 SE13G26   29.84F WCI  21
WAUSAU         CLOUDY    32  28  85 SE16G24   29.90F WCI  21
WIS RAPIDS     CLOUDY    34  28  79 S15G22    29.94F WCI  24
MARSHFIELD     CLOUDY    32  26  78 SE18G25   29.89F WCI  20
RICE LAKE      CLOUDY    33  28  82 SE16G23   29.79F WCI  23
$$

...NORTHEAST IOWA...


CITY           SKY/WX    TMP DP  RH WIND       PRES   REMARKS
WATERLOO       CLOUDY    35  30  82 SE18G30   29.83F WCI  24
DUBUQUE        CLOUDY    32  29  88 SE23G33   29.91F WCI  19
DECORAH        CLOUDY    34  30  86 SE21G29   29.81F WCI  22
MASON CITY     CLOUDY    34  30  85 SE25      29.75F WCI  21
CHARLES CITY   CLOUDY    34  34 100 SE18G26   29.79F WCI  23
OELWEIN        CLOUDY    34  34 100 SE25G31   29.86F WCI  21
$$

...ELSEWHERE IN IOWA...


CITY           SKY/WX    TMP DP  RH WIND       PRES   REMARKS
DES MOINES     CLOUDY    43  34  70 SE12      29.80F
IOWA CITY      MIX PCPN  36  32  85 SE13      29.94F WCI  27
FORT DODGE     CLOUDY    40  33  76 SE13G20   29.72F WCI  32
MARSHALLTOWN   CLOUDY    36  33  89 SE21G28   29.81F WCI  25
CEDAR RAPIDS   CLOUDY    34  31  88 SE18      29.90F WCI  23
$$

...NORTHERN ILLINOIS...


CITY           SKY/WX    TMP DP  RH WIND       PRES   REMARKS
CHICAGO-OHARE  PTCLDY    35  29  78 S13       30.09F WCI  26
CHICAGO-MIDWAY CLOUDY    36  31  82 S12       30.12F WCI  28
MOLINE         CLOUDY    35  29  78 SE10      29.99F WCI  27
ROCKFORD       CLOUDY    32  28  85 S15       30.08F WCI  22
PEORIA         CLOUDY    35  30  82 S16G29    30.06F WCI  25
$$

NOTE: "FAIR" INDICATES FEW OR NO CLOUDS BELOW 12,000 FEET WITH NO
SIGNIFICANT WEATHER AND/OR OBSTRUCTIONS TO VISIBILITY. WIND
SPEEDS ARE IN MILES-PER-HOUR.




USA.gov is the U.S. government's official web portal to all federal, state and local government web resources and services.